| time (UTC) | temp F | wind direction | speed MPH | gust MPH | rain 1hr in | rain 24hr in | rain mn in | humidity % | barometer mb |
| 20260901131607 | 77 | 167 | 0.0 | 4.0 | 0.00 | 0.00 | 0.00 | ||
| 20260901131102 | 78 | 235 | 3.0 | 7.0 | 0.00 | 0.00 | 0.00 | ||
| 20260901130557 | 78 | 256 | 6.0 | 6.0 | 0.00 | 0.00 | 0.00 | ||
| 20260901130052 | 79 | 219 | 5.0 | 7.0 | 0.00 | 0.00 | 0.00 | ||
| 20260901125545 | 78 | 243 | 6.0 | 8.0 | 0.00 | 0.00 | 0.00 | ||
| 20260901125040 | 78 | 266 | 1.0 | 7.0 | 0.00 | 0.00 | 0.00 | ||
| 20260901124534 | 77 | 238 | 4.0 | 6.0 | 0.00 | 0.00 | 0.00 | ||
| 20260901124029 | 76 | 253 | 3.0 | 7.0 | 0.00 | 0.00 | 0.00 | ||
| 20260901123524 | 77 | 159 | 0.0 | 5.0 | 0.00 | 0.00 | 0.00 | ||
| 20260901123019 | 78 | 266 | 2.0 | 5.0 | 0.00 | 0.00 | 0.00 | ||
| 20260901122007 | 76 | 260 | 5.0 | 5.0 | 0.00 | 0.00 | 0.00 | ||
| 20260901121502 | 75 | 236 | 1.0 | 5.0 | 0.00 | 0.00 | 0.00 | ||
| 20260901120957 | 74 | 252 | 3.0 | 4.0 | 0.00 | 0.00 | 0.00 | ||
| 20260901120730 | 74 | 256 | 0.0 | 4.0 | 0.00 | 0.00 | 0.00 | ||
| 20260901120452 | 74 | 256 | 0.0 | 4.0 | 0.00 | 0.00 | 0.00 | ||
| 20260901115947 | 73 | 249 | 1.0 | 0.0 | 0.00 | 0.00 | 0.00 | ||
| 20260901115439 | 73 | 225 | 0.0 | 0.0 | 0.00 | 0.00 | 0.00 | ||
| 20260901114934 | 72 | 225 | 0.0 | 0.0 | 0.00 | 0.00 | 0.00 | ||
| 20260901114429 | 72 | 225 | 0.0 | 0.0 | 0.00 | 0.00 | 0.00 | ||
| 20260901113416 | 72 | 225 | 0.0 | 0.0 | 0.00 | 0.00 | 0.00 | ||
| 20260901112912 | 71 | 225 | 0.0 | 0.0 | 0.00 | 0.00 | 0.00 | ||
| 20260901111859 | 72 | 225 | 0.0 | 0.0 | 0.00 | 0.00 | 0.00 | ||
| 20260901111354 | 71 | 225 | 0.0 | 1.0 | 0.00 | 0.00 | 0.00 | ||
| 20260901110849 | 72 | 225 | 0.0 | 3.0 | 0.00 | 0.00 | 0.00 | ||
| 20260901110222 | 71 | 194 | 0.0 | 0.0 | 0.00 | 0.00 | 0.00 | ||
| 20260901105839 | 72 | 194 | 0.0 | 0.0 | 0.00 | 0.00 | 0.00 | ||
| 20260901105331 | 71 | 194 | 0.0 | 0.0 | 0.00 | 0.00 | 0.00 | ||
| 20260901104826 | 71 | 194 | 0.0 | 0.0 | 0.00 | 0.00 | 0.00 | ||
| 20260901104320 | 72 | 194 | 0.0 | 0.0 | 0.00 | 0.00 | 0.00 | ||
| 20260901103815 | 72 | 194 | 0.0 | 0.0 | 0.00 | 0.00 | 0.00 | ||
| 20260901103310 | 71 | 194 | 0.0 | 0.0 | 0.00 | 0.00 | 0.00 | ||
| 20260901102941 | 70 | 194 | 0.0 | 0.0 | 0.00 | 0.00 | 0.00 | ||
| 20260901102806 | 70 | 194 | 0.0 | 0.0 | 0.00 | 0.00 | 0.00 | ||
| 20260901102258 | 71 | 194 | 0.0 | 0.0 | 0.00 | 0.00 | 0.00 | ||
| 20260901101753 | 71 | 194 | 0.0 | 0.0 | 0.00 | 0.00 | 0.00 | ||
| 20260901101248 | 71 | 194 | 0.0 | 0.0 | 0.00 | 0.00 | 0.00 | ||
| 20260901100743 | 70 | 194 | 0.0 | 0.0 | 0.00 | 0.00 | 0.00 | ||
| 20260901100239 | 72 | 194 | 0.0 | 0.0 | 0.00 | 0.00 | 0.00 | ||
| 20260901095226 | 71 | 194 | 0.0 | 0.0 | 0.00 | 0.00 | 0.00 | ||
| 20260901094721 | 70 | 194 | 0.0 | 0.0 | 0.00 | 0.00 | 0.00 | ||
| 20260901094217 | 71 | 194 | 0.0 | 0.0 | 0.00 | 0.00 | 0.00 | ||
| 20260901093711 | 71 | 194 | 0.0 | 0.0 | 0.00 | 0.00 | 0.00 | ||
| 20260901093401 | 71 | 194 | 0.0 | 0.0 | 0.00 | 0.00 | 0.00 | ||
| 20260901093206 | 71 | 194 | 0.0 | 0.0 | 0.00 | 0.00 | 0.00 | ||
| 20260901092154 | 72 | 194 | 0.0 | 0.0 | 0.00 | 0.00 | 0.00 | ||
| 20260901091649 | 72 | 194 | 0.0 | 0.0 | 0.00 | 0.00 | 0.00 | ||
| 20260901091144 | 72 | 194 | 0.0 | 0.0 | 0.00 | 0.00 | 0.00 | ||
| 20260901090639 | 72 | 194 | 0.0 | 0.0 | 0.00 | 0.00 | 0.00 | ||
| 20260901090134 | 72 | 194 | 0.0 | 0.0 | 0.00 | 0.00 | 0.00 | ||
| 20260901085629 | 71 | 194 | 0.0 | 0.0 | 0.00 | 0.00 | 0.00 | ||
| 20260901085121 | 73 | 194 | 0.0 | 0.0 | 0.00 | 0.00 | 0.00 | ||
| 20260901084616 | 73 | 194 | 0.0 | 0.0 | 0.00 | 0.00 | 0.00 | ||
| 20260901084111 | 72 | 194 | 0.0 | 0.0 | 0.00 | 0.00 | 0.00 | ||
| 20260901083606 | 72 | 194 | 0.0 | 0.0 | 0.00 | 0.00 | 0.00 | ||
| 20260901083101 | 72 | 194 | 0.0 | 0.0 | 0.00 | 0.00 | 0.00 | ||
| 20260901082555 | 72 | 194 | 0.0 | 0.0 | 0.00 | 0.00 | 0.00 | ||
| 20260901082047 | 71 | 194 | 0.0 | 0.0 | 0.00 | 0.00 | 0.00 | ||
| 20260901081542 | 71 | 194 | 0.0 | 0.0 | 0.00 | 0.00 | 0.00 | ||
| 20260901081037 | 71 | 194 | 0.0 | 0.0 | 0.00 | 0.00 | 0.00 | ||
| 20260901080531 | 71 | 194 | 0.0 | 0.0 | 0.00 | 0.00 | 0.00 | ||
| 20260901080026 | 72 | 194 | 0.0 | 0.0 | 0.00 | 0.00 | 0.00 | ||
| 20260901075521 | 73 | 194 | 0.0 | 0.0 | 0.00 | 0.00 | 0.00 | ||
| 20260901075012 | 71 | 194 | 0.0 | 0.0 | 0.00 | 0.00 | 0.00 | ||
| 20260901074508 | 71 | 194 | 0.0 | 0.0 | 0.00 | 0.00 | 0.00 | ||
| 20260901074003 | 70 | 194 | 0.0 | 0.0 | 0.00 | 0.00 | 0.00 | ||
| 20260901073458 | 71 | 194 | 0.0 | 0.0 | 0.00 | 0.00 | 0.00 | ||
| 20260901072950 | 71 | 194 | 0.0 | 0.0 | 0.00 | 0.00 | 0.00 | ||
| 20260901072445 | 71 | 194 | 0.0 | 0.0 | 0.00 | 0.00 | 0.00 | ||
| 20260901071936 | 71 | 194 | 0.0 | 0.0 | 0.00 | 0.00 | 0.00 | ||
| 20260901071432 | 71 | 194 | 0.0 | 0.0 | 0.00 | 0.00 | 0.00 | ||
| 20260901070422 | 71 | 194 | 0.0 | 0.0 | 0.00 | 0.00 | 0.00 | ||
| 20260901065917 | 72 | 194 | 0.0 | 0.0 | 0.00 | 0.00 | 0.00 | ||
| 20260901065412 | 71 | 194 | 0.0 | 0.0 | 0.00 | 0.00 | 0.00 | ||
| 20260901064905 | 73 | 194 | 0.0 | 0.0 | 0.00 | 0.00 | 0.00 | ||
| 20260901064400 | 72 | 194 | 0.0 | 0.0 | 0.00 | 0.00 | 0.00 | ||
| 20260901063855 | 72 | 194 | 0.0 | 0.0 | 0.00 | 0.00 | 0.00 | ||
| 20260901063350 | 72 | 194 | 0.0 | 0.0 | 0.00 | 0.00 | 0.00 | ||
| 20260901062845 | 71 | 194 | 0.0 | 0.0 | 0.00 | 0.00 | 0.00 | ||
| 20260901062340 | 71 | 194 | 0.0 | 0.0 | 0.00 | 0.00 | 0.00 | ||
| 20260901061832 | 71 | 194 | 0.0 | 0.0 | 0.00 | 0.00 | 0.00 | ||
| 20260901061327 | 71 | 194 | 0.0 | 0.0 | 0.00 | 0.00 | 0.00 | ||
| 20260901060822 | 71 | 194 | 0.0 | 0.0 | 0.00 | 0.00 | 0.00 | ||
| 20260901060317 | 70 | 194 | 0.0 | 0.0 | 0.00 | 0.00 | 0.00 | ||
| 20260901055812 | 72 | 194 | 0.0 | 0.0 | 0.00 | 0.00 | 0.00 | ||
| 20260901055307 | 71 | 194 | 0.0 | 0.0 | 0.00 | 0.00 | 0.00 | ||
| 20260901054758 | 71 | 194 | 0.0 | 0.0 | 0.00 | 0.00 | 0.00 | ||
| 20260901054254 | 71 | 194 | 0.0 | 0.0 | 0.00 | 0.00 | 0.00 | ||
| 20260901053749 | 71 | 194 | 0.0 | 0.0 | 0.00 | 0.00 | 0.00 | ||
| 20260901053244 | 71 | 194 | 0.0 | 0.0 | 0.00 | 0.00 | 0.00 | ||
| 20260901052739 | 72 | 194 | 0.0 | 0.0 | 0.00 | 0.00 | 0.00 | ||
| 20260901052234 | 71 | 194 | 0.0 | 0.0 | 0.00 | 0.00 | 0.00 | ||
| 20260901051726 | 72 | 194 | 0.0 | 0.0 | 0.00 | 0.00 | 0.00 | ||
| 20260901051221 | 71 | 194 | 0.0 | 0.0 | 0.00 | 0.00 | 0.00 | ||
| 20260901050716 | 72 | 194 | 0.0 | 0.0 | 0.00 | 0.00 | 0.00 | ||
| 20260901050212 | 72 | 194 | 0.0 | 0.0 | 0.00 | 0.00 | 0.00 | ||
| 20260901045707 | 72 | 194 | 0.0 | 0.0 | 0.00 | 0.00 | 0.00 | ||
| 20260901045202 | 72 | 194 | 0.0 | 0.0 | 0.00 | 0.00 | 0.00 | ||
| 20260901044654 | 72 | 194 | 0.0 | 0.0 | 0.00 | 0.00 | 0.00 | ||
| 20260901044149 | 72 | 194 | 0.0 | 0.0 | 0.00 | 0.00 | 0.00 | ||
| 20260901043644 | 73 | 194 | 0.0 | 0.0 | 0.00 | 0.00 | 0.00 | ||
| 20260901043139 | 72 | 194 | 0.0 | 0.0 | 0.00 | 0.00 | 0.00 | ||
| 20260901042129 | 72 | 194 | 0.0 | 0.0 | 0.00 | 0.00 | 0.00 | ||
| 20260901041115 | 71 | 194 | 0.0 | 0.0 | 0.00 | 0.00 | 0.00 | ||
| 20260901040610 | 72 | 194 | 0.0 | 0.0 | 0.00 | 0.00 | 0.00 | ||
| 20260901040106 | 72 | 194 | 0.0 | 0.0 | 0.00 | 0.00 | 0.00 | ||
| 20260901035055 | 72 | 194 | 0.0 | 0.0 | 0.00 | 0.00 | 0.00 | ||
| 20260901034716 | 73 | 194 | 0.0 | 0.0 | 0.00 | 0.00 | 0.00 | ||
| 20260901034546 | 73 | 194 | 0.0 | 0.0 | 0.00 | 0.00 | 0.00 | ||
| 20260901034041 | 72 | 194 | 0.0 | 0.0 | 0.00 | 0.00 | 0.00 | ||
| 20260901033537 | 72 | 194 | 0.0 | 0.0 | 0.00 | 0.00 | 0.00 | ||
| 20260901033031 | 72 | 194 | 0.0 | 0.0 | 0.00 | 0.00 | 0.00 | ||
| 20260901032526 | 73 | 194 | 0.0 | 0.0 | 0.00 | 0.00 | 0.00 | ||
| 20260901032020 | 72 | 194 | 0.0 | 0.0 | 0.00 | 0.00 | 0.00 | ||
| 20260901031512 | 73 | 194 | 0.0 | 0.0 | 0.00 | 0.00 | 0.00 | ||
| 20260901031007 | 71 | 194 | 0.0 | 0.0 | 0.00 | 0.00 | 0.00 | ||
| 20260901030503 | 72 | 194 | 0.0 | 0.0 | 0.00 | 0.00 | 0.00 | ||
| 20260901025958 | 72 | 194 | 0.0 | 0.0 | 0.00 | 0.00 | 0.00 | ||
| 20260901025453 | 73 | 194 | 0.0 | 0.0 | 0.00 | 0.00 | 0.00 | ||
| 20260901024948 | 72 | 194 | 0.0 | 0.0 | 0.00 | 0.00 | 0.00 | ||
| 20260901024439 | 73 | 194 | 0.0 | 0.0 | 0.00 | 0.00 | 0.00 | ||
| 20260901023935 | 71 | 194 | 0.0 | 0.0 | 0.00 | 0.00 | 0.00 | ||
| 20260901022925 | 72 | 194 | 0.0 | 0.0 | 0.00 | 0.00 | 0.00 | ||
| 20260901022420 | 72 | 194 | 0.0 | 0.0 | 0.00 | 0.00 | 0.00 | ||
| 20260901021915 | 72 | 194 | 0.0 | 0.0 | 0.00 | 0.00 | 0.00 | ||
| 20260901021406 | 72 | 194 | 0.0 | 0.0 | 0.00 | 0.00 | 0.00 | ||
| 20260901020357 | 71 | 194 | 0.0 | 0.0 | 0.00 | 0.00 | 0.00 | ||
| 20260901015852 | 72 | 194 | 0.0 | 0.0 | 0.00 | 0.00 | 0.00 | ||
| 20260901015347 | 72 | 194 | 0.0 | 0.0 | 0.00 | 0.00 | 0.00 | ||
| 20260901014335 | 72 | 194 | 0.0 | 0.0 | 0.00 | 0.00 | 0.00 | ||
| 20260901013830 | 73 | 194 | 0.0 | 0.0 | 0.00 | 0.00 | 0.00 | ||
| 20260901013325 | 73 | 194 | 0.0 | 3.0 | 0.00 | 0.00 | 0.00 | ||
| 20260901012820 | 73 | 170 | 0.0 | 3.0 | 0.00 | 0.00 | 0.00 | ||
| 20260901012315 | 72 | 217 | 2.0 | 0.0 | 0.00 | 0.00 | 0.00 | ||
| 20260901011808 | 73 | 136 | 0.0 | 0.0 | 0.00 | 0.00 | 0.00 | ||
| 20260901011301 | 73 | 136 | 0.0 | 0.0 | 0.00 | 0.00 | 0.00 | ||
| 20260901010756 | 73 | 136 | 0.0 | 0.0 | 0.00 | 0.00 | 0.00 | ||
| 20260901010251 | 74 | 136 | 0.0 | 0.0 | 0.00 | 0.00 | 0.00 | ||
| 20260901005746 | 73 | 136 | 0.0 | 0.0 | 0.00 | 0.00 | 0.00 | ||
| 20260901005241 | 74 | 136 | 0.0 | 0.0 | 0.00 | 0.00 | 0.00 | ||
| 20260901004737 | 74 | 136 | 0.0 | 0.0 | 0.00 | 0.00 | 0.00 | ||
| 20260901004229 | 75 | 136 | 0.0 | 2.0 | 0.00 | 0.00 | 0.00 | ||
| 20260901003219 | 75 | 77 | 0.0 | 0.0 | 0.00 | 0.00 | 0.00 | ||
| 20260901002714 | 75 | 77 | 0.0 | 0.0 | 0.00 | 0.00 | 0.00 | ||
| 20260901002210 | 74 | 77 | 0.0 | 0.0 | 0.00 | 0.00 | 0.00 | ||
| 20260901001705 | 76 | 77 | 0.0 | 0.0 | 0.00 | 0.00 | 0.00 | ||
| 20260901001157 | 76 | 77 | 0.0 | 0.0 | 0.00 | 0.00 | 0.00 | ||
| 20260901000651 | 75 | 77 | 0.0 | 0.0 | 0.00 | 0.00 | 0.00 | ||
| 20260901000146 | 76 | 77 | 0.0 | 0.0 | 0.00 | 0.00 | 0.00 | ||
| 20260831235642 | 76 | 77 | 0.0 | 0.0 | 0.00 | 0.00 | 0.00 | ||
| 20260831235137 | 77 | 77 | 0.0 | 0.0 | 0.00 | 0.00 | 0.00 | ||
| 20260831234632 | 77 | 77 | 0.0 | 0.0 | 0.00 | 0.00 | 0.00 | ||
| 20260831234124 | 79 | 77 | 0.0 | 0.0 | 0.00 | 0.00 | 0.00 | ||
| 20260831233620 | 79 | 77 | 0.0 | 0.0 | 0.00 | 0.00 | 0.00 | ||
| 20260831232610 | 81 | 77 | 0.0 | 1.0 | 0.00 | 0.00 | 0.00 | ||
| 20260831232105 | 81 | 73 | 0.0 | 0.0 | 0.00 | 0.00 | 0.00 | ||
| 20260831231600 | 82 | 73 | 0.0 | 0.0 | 0.00 | 0.00 | 0.00 | ||
| 20260831231053 | 82 | 73 | 0.0 | 0.0 | 0.00 | 0.00 | 0.00 | ||
| 20260831230548 | 80 | 73 | 0.0 | 0.0 | 0.00 | 0.00 | 0.00 | ||
| 20260831230043 | 82 | 73 | 0.0 | 2.0 | 0.00 | 0.00 | 0.00 | ||
| 20260831225538 | 83 | 82 | 1.0 | 3.0 | 0.00 | 0.00 | 0.00 | ||
| 20260831225034 | 82 | 135 | 1.0 | 4.0 | 0.00 | 0.00 | 0.00 | ||
| 20260831224529 | 82 | 146 | 2.0 | 3.0 | 0.00 | 0.00 | 0.00 | ||
| 20260831224021 | 83 | 138 | 2.0 | 4.0 | 0.00 | 0.00 | 0.00 | ||
| 20260831223516 | 85 | 131 | 1.0 | 4.0 | 0.00 | 0.00 | 0.00 | ||
| 20260831223012 | 87 | 101 | 0.0 | 3.0 | 0.00 | 0.00 | 0.00 | ||
| 20260831222507 | 86 | 117 | 2.0 | 4.0 | 0.00 | 0.00 | 0.00 | ||
| 20260831222002 | 83 | 94 | 0.0 | 0.0 | 0.00 | 0.00 | 0.00 | ||
| 20260831221457 | 83 | 94 | 0.0 | 2.0 | 0.00 | 0.00 | 0.00 | ||
| 20260831220949 | 82 | 94 | 0.0 | 3.0 | 0.00 | 0.00 | 0.00 | ||
| 20260831220444 | 82 | 122 | 1.0 | 3.0 | 0.00 | 0.00 | 0.00 | ||
| 20260831215939 | 84 | 110 | 2.0 | 2.0 | 0.00 | 0.00 | 0.00 | ||
| 20260831215435 | 84 | 170 | 2.0 | 0.0 | 0.00 | 0.00 | 0.00 | ||
| 20260831214425 | 84 | 89 | 0.0 | 2.0 | 0.00 | 0.00 | 0.00 | ||
| 20260831213918 | 84 | 121 | 1.0 | 2.0 | 0.00 | 0.00 | 0.00 | ||
| 20260831213413 | 84 | 89 | 1.0 | 2.0 | 0.00 | 0.00 | 0.00 | ||
| 20260831212908 | 84 | 190 | 1.0 | 2.0 | 0.00 | 0.00 | 0.00 | ||
| 20260831212403 | 83 | 121 | 1.0 | 0.0 | 0.00 | 0.00 | 0.00 | ||
| 20260831211858 | 84 | 93 | 0.0 | 0.0 | 0.00 | 0.00 | 0.00 | ||
| 20260831211353 | 84 | 93 | 0.0 | 0.0 | 0.00 | 0.00 | 0.00 | ||
| 20260831210844 | 84 | 93 | 0.0 | 0.0 | 0.00 | 0.00 | 0.00 | ||
| 20260831210339 | 82 | 93 | 0.0 | 0.0 | 0.00 | 0.00 | 0.00 | ||
| 20260831205834 | 84 | 93 | 0.0 | 0.0 | 0.00 | 0.00 | 0.00 | ||
| 20260831205329 | 82 | 93 | 0.0 | 0.0 | 0.00 | 0.00 | 0.00 | ||
| 20260831204823 | 82 | 93 | 0.0 | 1.0 | 0.00 | 0.00 | 0.00 | ||
| 20260831204318 | 81 | 93 | 0.0 | 0.0 | 0.00 | 0.00 | 0.00 | ||
| 20260831203809 | 83 | 159 | 0.0 | 0.0 | 0.00 | 0.00 | 0.00 | ||
| 20260831202800 | 84 | 159 | 0.0 | 0.0 | 0.00 | 0.00 | 0.00 | ||
| 20260831202255 | 83 | 159 | 0.0 | 1.0 | 0.00 | 0.00 | 0.00 | ||
| 20260831200736 | 82 | 232 | 0.0 | 3.0 | 0.00 | 0.00 | 0.00 | ||
| 20260831200231 | 85 | 255 | 2.0 | 4.0 | 0.00 | 0.00 | 0.00 | ||
| 20260831195727 | 86 | 219 | 1.0 | 4.0 | 0.00 | 0.00 | 0.00 | ||
| 20260831194718 | 88 | 24 | 0.0 | 2.0 | 0.00 | 0.00 | 0.00 | ||
| 20260831194213 | 88 | 253 | 0.0 | 3.0 | 0.00 | 0.00 | 0.00 | ||
| 20260831193705 | 90 | 120 | 2.0 | 5.0 | 0.00 | 0.00 | 0.00 | ||
| 20260831193201 | 87 | 98 | 5.0 | 0.0 | 0.00 | 0.00 | 0.00 | ||
| 20260831192655 | 88 | 195 | 0.0 | 0.0 | 0.00 | 0.00 | 0.00 | ||
| 20260831192150 | 87 | 195 | 0.0 | 0.0 | 0.00 | 0.00 | 0.00 | ||
| 20260831191645 | 86 | 195 | 0.0 | 0.0 | 0.00 | 0.00 | 0.00 | ||
| 20260831191141 | 86 | 195 | 0.0 | 0.0 | 0.00 | 0.00 | 0.00 | ||
| 20260831190633 | 83 | 195 | 0.0 | 0.0 | 0.00 | 0.00 | 0.00 | ||
| 20260831190127 | 83 | 195 | 0.0 | 0.0 | 0.00 | 0.00 | 0.00 | ||
| 20260831185623 | 83 | 195 | 0.0 | 0.0 | 0.00 | 0.00 | 0.00 | ||
| 20260831185118 | 83 | 195 | 0.0 | 0.0 | 0.00 | 0.00 | 0.00 | ||
| 20260831184613 | 83 | 195 | 0.0 | 0.0 | 0.00 | 0.00 | 0.00 | ||
| 20260831183056 | 84 | 195 | 0.0 | 0.0 | 0.00 | 0.00 | 0.00 | ||
| 20260831182551 | 83 | 195 | 0.0 | 0.0 | 0.00 | 0.00 | 0.00 | ||
| 20260831182046 | 85 | 195 | 0.0 | 0.0 | 0.00 | 0.00 | 0.00 | ||
| 20260831181542 | 85 | 195 | 0.0 | 0.0 | 0.00 | 0.00 | 0.00 | ||
| 20260831181037 | 84 | 195 | 0.0 | 3.0 | 0.00 | 0.00 | 0.00 | ||
| 20260831180528 | 83 | 240 | 2.0 | 3.0 | 0.00 | 0.00 | 0.00 | ||
| 20260831180023 | 83 | 252 | 3.0 | 3.0 | 0.00 | 0.00 | 0.00 | ||
| 20260831175519 | 84 | 231 | 1.0 | 3.0 | 0.00 | 0.00 | 0.00 | ||
| 20260831175014 | 85 | 221 | 2.0 | 3.0 | 0.00 | 0.00 | 0.00 | ||
| 20260831174509 | 84 | 177 | 1.0 | 1.0 | 0.00 | 0.00 | 0.00 | ||
| 20260831174004 | 84 | 218 | 1.0 | 3.0 | 0.00 | 0.00 | 0.00 | ||
| 20260831173456 | 86 | 138 | 1.0 | 4.0 | 0.00 | 0.00 | 0.00 | ||
| 20260831172951 | 82 | 139 | 3.0 | 3.0 | 0.00 | 0.00 | 0.00 | ||
| 20260831172446 | 83 | 231 | 3.0 | 2.0 | 0.00 | 0.00 | 0.00 | ||
| 20260831171942 | 84 | 238 | 0.0 | 0.0 | 0.00 | 0.00 | 0.00 | ||
| 20260831171437 | 84 | 315 | 0.0 | 0.0 | 0.00 | 0.00 | 0.00 | ||
| 20260831170932 | 86 | 315 | 0.0 | 0.0 | 0.00 | 0.00 | 0.00 | ||
| 20260831170424 | 87 | 315 | 0.0 | 0.0 | 0.00 | 0.00 | 0.00 | ||
| 20260831165919 | 84 | 315 | 0.0 | 0.0 | 0.00 | 0.00 | 0.00 | ||
| 20260831165414 | 84 | 315 | 0.0 | 3.0 | 0.00 | 0.00 | 0.00 | ||
| 20260831164909 | 84 | 298 | 1.0 | 4.0 | 0.00 | 0.00 | 0.00 | ||
| 20260831164404 | 84 | 197 | 2.0 | 2.0 | 0.00 | 0.00 | 0.00 | ||
| 20260831163900 | 83 | 139 | 2.0 | 2.0 | 0.00 | 0.00 | 0.00 | ||
| 20260831163352 | 83 | 215 | 2.0 | 1.0 | 0.00 | 0.00 | 0.00 | ||
| 20260831162847 | 84 | 90 | 0.0 | 4.0 | 0.00 | 0.00 | 0.00 | ||
| 20260831162342 | 83 | 34 | 1.0 | 3.0 | 0.00 | 0.00 | 0.00 | ||
| 20260831161838 | 85 | 55 | 0.0 | 3.0 | 0.00 | 0.00 | 0.00 | ||
| 20260831161334 | 85 | 65 | 1.0 | 4.0 | 0.00 | 0.00 | 0.00 | ||
| 20260831160828 | 83 | 111 | 1.0 | 3.0 | 0.00 | 0.00 | 0.00 | ||
| 20260831160319 | 86 | 138 | 1.0 | 4.0 | 0.00 | 0.00 | 0.00 | ||
| 20260831155814 | 87 | 63 | 0.0 | 4.0 | 0.00 | 0.00 | 0.00 | ||
| 20260831155310 | 85 | 177 | 0.0 | 4.0 | 0.00 | 0.00 | 0.00 | ||
| 20260831154805 | 87 | 177 | 0.0 | 4.0 | 0.00 | 0.00 | 0.00 | ||
| 20260831154300 | 89 | 197 | 1.0 | 5.0 | 0.00 | 0.00 | 0.00 | ||
| 20260831153755 | 87 | 44 | 1.0 | 4.0 | 0.00 | 0.00 | 0.00 | ||
| 20260831152743 | 88 | 25 | 1.0 | 7.0 | 0.00 | 0.00 | 0.00 | ||
| 20260831152238 | 87 | 114 | 3.0 | 6.0 | 0.00 | 0.00 | 0.00 | ||
| 20260831151733 | 89 | 104 | 4.0 | 3.0 | 0.00 | 0.00 | 0.00 | ||
| 20260831151228 | 88 | 39 | 0.0 | 3.0 | 0.00 | 0.00 | 0.00 | ||
| 20260831150724 | 87 | 193 | 0.0 | 5.0 | 0.00 | 0.00 | 0.00 | ||
| 20260831150216 | 86 | 359 | 0.0 | 4.0 | 0.00 | 0.00 | 0.00 | ||
| 20260831145710 | 87 | 105 | 0.0 | 2.0 | 0.00 | 0.00 | 0.00 | ||
| 20260831145206 | 85 | 79 | 0.0 | 4.0 | 0.00 | 0.00 | 0.00 | ||
| 20260831144701 | 85 | 11 | 0.0 | 4.0 | 0.00 | 0.00 | 0.00 | ||
| 20260831144156 | 85 | 27 | 4.0 | 3.0 | 0.00 | 0.00 | 0.00 | ||
| 20260831143650 | 80 | 60 | 1.0 | 3.0 | 0.00 | 0.00 | 0.00 | ||
| 20260831143143 | 80 | 330 | 1.0 | 2.0 | 0.00 | 0.00 | 0.00 | ||
| 20260831142638 | 80 | 83 | 0.0 | 2.0 | 0.00 | 0.00 | 0.00 | ||
| 20260831142133 | 80 | 62 | 1.0 | 5.0 | 0.00 | 0.00 | 0.00 | ||
| 20260831141124 | 79 | 4 | 3.0 | 5.0 | 0.00 | 0.00 | 0.00 | ||
| 20260831140110 | 79 | 23 | 0.0 | 2.0 | 0.00 | 0.00 | 0.00 | ||
| 20260831135606 | 80 | 44 | 0.0 | 4.0 | 0.00 | 0.00 | 0.00 | ||
| 20260831134556 | 79 | 31 | 1.0 | 3.0 | 0.00 | 0.00 | 0.00 | ||
| 20260831134052 | 77 | 37 | 1.0 | 4.0 | 0.00 | 0.00 | 0.00 | ||
| 20260831133547 | 77 | 353 | 2.0 | 2.0 | 0.00 | 0.00 | 0.00 | ||
| 20260831132533 | 77 | 37 | 1.0 | 4.0 | 0.00 | 0.00 | 0.00 | ||
| 20260831132029 | 78 | 39 | 0.0 | 1.0 | 0.00 | 0.00 | 0.00 |